When you browse on this site, cookies collect data to enhance your experience and personalize the content and advertising you see.
Visit our Privacy Policy to learn more. By continuing to use the site, you agree to this use of cookies and data.
  • In Deutschland
  • Länderverzeichnis
  • Für 7 Tage
  • Wassertemperatur
  • Satellitenkarten
  • Wetterkarte
  • Widgets
  • user-avatar
    Anmelden

    Stündliche Wetter Vydel

    Heute, 20 Februar, Mittwoch

    Zeit Temperatur Niederschläge Wind Luftdruck Luftfeuchtigkeit
    00:00 -3°C° 0 mm 1 m/S 759 mmHg 73%
    01:00 -3°C° 0 mm 1 m/S 758 mmHg 72%
    02:00 -3°C° 0 mm 1 m/S 758 mmHg 71%
    03:00 -5°C° 0 mm 2 m/S 757 mmHg 70%
    04:00 -4°C° 0 mm 2 m/S 757 mmHg 69%
    05:00 -4°C° 0 mm 2 m/S 757 mmHg 68%
    06:00 -4°C° 0 mm 2 m/S 756 mmHg 67%
    07:00 -4°C° 0 mm 2 m/S 756 mmHg 66%
    08:00 -3°C° 0 mm 2 m/S 756 mmHg 65%
    09:00 -3°C° 0 mm 2 m/S 755 mmHg 64%
    10:00 -1°C° 0 mm 3 m/S 755 mmHg 62%
    11:00 0°C° 0 mm 3 m/S 755 mmHg 60%
    12:00 0°C° 0 mm 4 m/S 754 mmHg 59%
    13:00 +1°C° 0 mm 4 m/S 754 mmHg 62%
    14:00 +1°C° 0 mm 4 m/S 753 mmHg 65%
    15:00 +1°C° 0 mm 4 m/S 753 mmHg 68%
    16:00 0°C° 0 mm 4 m/S 753 mmHg 72%
    17:00 0°C° 0 mm 4 m/S 752 mmHg 75%
    18:00 0°C° 0 mm 3 m/S 752 mmHg 79%
    19:00 0°C° 0 mm 3 m/S 752 mmHg 80%
    20:00 -1°C° 0 mm 3 m/S 752 mmHg 82%
    21:00 -1°C° 0 mm 3 m/S 752 mmHg 83%
    22:00 -1°C° 0 mm 3 m/S 751 mmHg 83%
    23:00 -1°C° 0 mm 3 m/S 751 mmHg 84%

    Morgen, 21 Februar, Donnerstag

    Zeit Temperatur Niederschläge Wind Luftdruck Luftfeuchtigkeit
    00:00 -1°C° 0 mm 3 m/S 751 mmHg 84%
    01:00 -2°C° 0 mm 4 m/S 750 mmHg 86%
    02:00 -1°C° 0 mm 4 m/S 750 mmHg 88%
    03:00 -1°C° 0 mm 4 m/S 750 mmHg 90%
    04:00 -1°C° 0 mm 4 m/S 749 mmHg 91%
    05:00 0°C° 0 mm 5 m/S 749 mmHg 93%
    06:00 0°C° 0 mm 5 m/S 749 mmHg 94%
    07:00 0°C° 0.3 mm 5 m/S 749 mmHg 95%
    08:00 0°C° 0.3 mm 5 m/S 748 mmHg 95%
    09:00 0°C° 0.3 mm 5 m/S 748 mmHg 96%
    10:00 +1°C° 0.1 mm 5 m/S 748 mmHg 93%
    11:00 +1°C° 0.1 mm 5 m/S 748 mmHg 90%
    12:00 +2°C° 0.1 mm 5 m/S 748 mmHg 88%
    13:00 +2°C° 0.1 mm 5 m/S 747 mmHg 81%
    14:00 +2°C° 0.1 mm 6 m/S 747 mmHg 74%
    15:00 +3°C° 0.1 mm 7 m/S 747 mmHg 68%
    16:00 +2°C° 0.3 mm 7 m/S 747 mmHg 71%
    17:00 0°C° 0.3 mm 7 m/S 747 mmHg 75%
    18:00 -1°C° 0.3 mm 7 m/S 747 mmHg 78%
    19:00 -2°C° 0.1 mm 7 m/S 748 mmHg 74%
    20:00 -4°C° 0.1 mm 7 m/S 748 mmHg 71%
    21:00 -5°C° 0.1 mm 6 m/S 749 mmHg 67%
    22:00 -6°C° 0 mm 6 m/S 749 mmHg 67%
    23:00 -6°C° 0 mm 6 m/S 749 mmHg 66%

    übermorgen, 22 Februar, Freitag

    Zeit Temperatur Niederschläge Wind Luftdruck Luftfeuchtigkeit
    00:00 -6°C° 0 mm 6 m/S 750 mmHg 66%
    01:00 -6°C° 0 mm 6 m/S 750 mmHg 65%
    02:00 -6°C° 0 mm 6 m/S 750 mmHg 64%
    03:00 -6°C° 0 mm 6 m/S 750 mmHg 63%
    04:00 -8°C° 0 mm 6 m/S 750 mmHg 64%
    05:00 -7°C° 0 mm 5 m/S 750 mmHg 64%
    06:00 -7°C° 0 mm 5 m/S 751 mmHg 65%
    07:00 -6°C° 0 mm 5 m/S 751 mmHg 64%
    08:00 -6°C° 0 mm 5 m/S 751 mmHg 63%
    09:00 -6°C° 0 mm 5 m/S 751 mmHg 63%
    10:00 -5°C° 0 mm 5 m/S 751 mmHg 61%
    11:00 -5°C° 0 mm 5 m/S 751 mmHg 59%
    12:00 -4°C° 0 mm 6 m/S 751 mmHg 58%
    13:00 -4°C° 0 mm 5 m/S 750 mmHg 57%
    14:00 -4°C° 0 mm 5 m/S 750 mmHg 57%
    15:00 -4°C° 0 mm 5 m/S 750 mmHg 57%
    16:00 -3°C° 0.2 mm 4 m/S 750 mmHg 65%
    17:00 -4°C° 0.2 mm 3 m/S 750 mmHg 74%
    18:00 -4°C° 0.2 mm 2 m/S 750 mmHg 82%
    19:00 -5°C° 0.5 mm 3 m/S 750 mmHg 84%
    20:00 -7°C° 0.5 mm 4 m/S 750 mmHg 86%
    21:00 -8°C° 0.5 mm 5 m/S 751 mmHg 88%
    22:00 -9°C° 0.7 mm 6 m/S 751 mmHg 89%
    23:00 -10°C° 0.7 mm 6 m/S 751 mmHg 90%

    23 Februar, Samstag

    Zeit Temperatur Niederschläge Wind Luftdruck Luftfeuchtigkeit
    00:00 -12°C° 0.7 mm 7 m/S 751 mmHg 90%
    01:00 -13°C° 0.5 mm 7 m/S 751 mmHg 90%
    02:00 -13°C° 0.5 mm 7 m/S 751 mmHg 89%
    03:00 -14°C° 0.5 mm 7 m/S 752 mmHg 89%
    04:00 -14°C° 0.4 mm 7 m/S 752 mmHg 89%
    05:00 -14°C° 0.4 mm 7 m/S 752 mmHg 88%
    06:00 -14°C° 0.4 mm 7 m/S 752 mmHg 88%
    07:00 -14°C° 0.2 mm 7 m/S 753 mmHg 88%
    08:00 -14°C° 0.2 mm 7 m/S 753 mmHg 87%
    09:00 -15°C° 0.2 mm 8 m/S 753 mmHg 86%
    10:00 -13°C° 0.3 mm 7 m/S 754 mmHg 87%
    11:00 -13°C° 0.3 mm 7 m/S 754 mmHg 87%
    12:00 -13°C° 0.3 mm 7 m/S 754 mmHg 87%
    13:00 -12°C° 0.1 mm 7 m/S 755 mmHg 87%
    14:00 -12°C° 0.1 mm 7 m/S 755 mmHg 86%
    15:00 -12°C° 0.1 mm 7 m/S 755 mmHg 86%
    16:00 -12°C° 0.1 mm 7 m/S 755 mmHg 86%
    17:00 -11°C° 0.1 mm 6 m/S 756 mmHg 87%
    18:00 -11°C° 0.1 mm 6 m/S 756 mmHg 87%
    19:00 -11°C° 0.1 mm 6 m/S 756 mmHg 88%
    20:00 -12°C° 0.1 mm 6 m/S 757 mmHg 88%
    21:00 -12°C° 0.1 mm 6 m/S 757 mmHg 89%
    22:00 -12°C° 0.1 mm 6 m/S 757 mmHg 89%
    23:00 -12°C° 0.1 mm 5 m/S 757 mmHg 89%

    24 Februar, Sonntag

    Zeit Temperatur Niederschläge Wind Luftdruck Luftfeuchtigkeit
    00:00 -12°C° 0.1 mm 5 m/S 757 mmHg 89%
    01:00 -12°C° 0 mm 5 m/S 757 mmHg 89%
    02:00 -12°C° 0 mm 5 m/S 758 mmHg 89%
    03:00 -12°C° 0 mm 5 m/S 758 mmHg 89%
    04:00 -12°C° 0 mm 5 m/S 758 mmHg 90%
    05:00 -12°C° 0 mm 5 m/S 757 mmHg 90%
    06:00 -13°C° 0 mm 5 m/S 757 mmHg 90%
    07:00 -12°C° 0.1 mm 5 m/S 758 mmHg 90%
    08:00 -12°C° 0.1 mm 5 m/S 758 mmHg 90%
    09:00 -12°C° 0.1 mm 5 m/S 758 mmHg 90%
    10:00 -11°C° 0.2 mm 5 m/S 758 mmHg 90%
    11:00 -11°C° 0.2 mm 5 m/S 758 mmHg 91%
    12:00 -10°C° 0.2 mm 5 m/S 758 mmHg 91%
    13:00 -10°C° 0.2 mm 5 m/S 758 mmHg 91%
    14:00 -8°C° 0.2 mm 5 m/S 758 mmHg 91%
    15:00 -8°C° 0.2 mm 4 m/S 758 mmHg 91%
    16:00 -8°C° 0.1 mm 4 m/S 758 mmHg 91%
    17:00 -9°C° 0.1 mm 4 m/S 758 mmHg 91%
    18:00 -9°C° 0.1 mm 4 m/S 758 mmHg 91%
    19:00 -10°C° 0.1 mm 5 m/S 758 mmHg 91%
    20:00 -10°C° 0.1 mm 5 m/S 758 mmHg 91%
    21:00 -10°C° 0.1 mm 5 m/S 758 mmHg 91%
    22:00 -10°C° 0.2 mm 5 m/S 758 mmHg 92%
    23:00 -10°C° 0.2 mm 5 m/S 758 mmHg 92%

    25 Februar, Montag

    Zeit Temperatur Niederschläge Wind Luftdruck Luftfeuchtigkeit
    00:00 -10°C° 0.2 mm 5 m/S 758 mmHg 92%
    01:00 -10°C° 0.1 mm 5 m/S 758 mmHg 92%
    02:00 -10°C° 0.1 mm 5 m/S 758 mmHg 92%
    03:00 -10°C° 0.1 mm 5 m/S 758 mmHg 93%
    04:00 -10°C° 0.1 mm 5 m/S 758 mmHg 93%
    05:00 -10°C° 0.1 mm 5 m/S 758 mmHg 93%
    06:00 -10°C° 0.1 mm 5 m/S 758 mmHg 93%
    07:00 -10°C° 0.1 mm 5 m/S 758 mmHg 93%
    08:00 -10°C° 0.1 mm 5 m/S 758 mmHg 93%
    09:00 -8°C° 0.1 mm 5 m/S 758 mmHg 93%
    10:00 -8°C° 0.2 mm 4 m/S 758 mmHg 93%
    11:00 -7°C° 0.2 mm 4 m/S 758 mmHg 93%
    12:00 -7°C° 0.2 mm 4 m/S 757 mmHg 93%
    13:00 -5°C° 0.1 mm 4 m/S 757 mmHg 93%
    14:00 -5°C° 0.1 mm 4 m/S 757 mmHg 93%
    15:00 -5°C° 0.1 mm 4 m/S 756 mmHg 93%
    16:00 -5°C° 0 mm 4 m/S 756 mmHg 93%
    17:00 -5°C° 0 mm 3 m/S 755 mmHg 93%
    18:00 -5°C° 0 mm 3 m/S 755 mmHg 94%
    19:00 -6°C° 0 mm 3 m/S 755 mmHg 94%
    20:00 -6°C° 0 mm 2 m/S 754 mmHg 94%
    21:00 -6°C° 0 mm 2 m/S 754 mmHg 95%
    22:00 -6°C° 0 mm 2 m/S 753 mmHg 95%
    23:00 -6°C° 0 mm 2 m/S 753 mmHg 95%
    Mehr zeigen